User: anonymous   Login
Location: Chrome
(40.5765°N, 74.2163°W)
Time: 07:29:19
(UTC+00:00)
Language:

Cosmos 2251 Rocket - Orbit

View from above orbital plane
View from above orbital plane
View from above satellite
View from above satellite

Ground track
Ground track

The orbit data is extracted from the following two-line orbital elements,

1 22676U 93036B   20049.69340934 -.00000072  00000-0 -16362-4 0  9990
2 22676  74.0412 195.8383 0019143 340.9020  19.1411 14.33992901395315
Epoch (UTC): 18 February 2020 16:38:30
Eccentricity: 0.0019143
inclination: 74.0412°
perigee height: 765 km
apogee height: 792 km
right ascension of ascending node: 195.8383°
argument of perigee: 340.9020°
revolutions per day: 14.33992901
mean anomaly at epoch: 19.1411°
orbit number at epoch: 39531

The dashed part of the orbit path shows where the satellite is in the earth's shadow,  

DLR